Temp
-18 -19 -19 -19 -19 -19 -19 -19 -19 -19 -19 -19 -19 -19 -19 -19 -19 -20 -20 -19 -19 -19 -20 -20 -20 -20 -20 -21 -20 -21 -21 -21 -20 -20 -20 -21 -21 -21 -21 -21 -21 -20 -20 -17
-20 -20 -19 -19 -20 -20 -20 -19 -19 -20 -20 -20 -20 -20 -20 -20 -20 -20 -21 -21 -21 -20 -20 -21 -21 -22 -22 -22 -23 -23 -22 -22 -21 -20 -20 -21 -22 -21 -22 -22 -22 -21 -21 -17
-20 -20 -20 -20 -20 -21 -22 -21 -20 -21 -21 -21 -21 -21 -21 -21 -21 -22 -22 -22 -22 -22 -21 -21 -21 -21 -23 -23 -23 -23 -22 -22 -22 -21 -21 -21 -21 -21 -21 -22 -22 -22 -20 -19
-21 -21 -21 -21 -21 -22 -23 -23 -22 -22 -22 -22 -23 -23 -23 -23 -22 -23 -23 -23 -23 -24 -22 -22 -21 -23 -25 -25 -24 -23 -24 -23 -23 -23 -22 -22 -21 -21 -22 -22 -22 -22 -20 -20
-22 -22 -22 -22 -22 -23 -24 -24 -23 -23 -24 -24 -24 -24 -23 -23 -24 -24 -24 -24 -24 -24 -24 -24 -24 -25 -25 -25 -24 -24 -24 -24 -23 -23 -23 -23 -22 -22 -22 -22 -22 -23 -20 -19
-24 -24 -24 -24 -24 -25 -25 -25 -26 -26 -25 -25 -25 -24 -24 -24 -25 -24 -25 -25 -25 -25 -25 -24 -24 -25 -25 -25 -25 -25 -25 -24 -24 -23 -23 -23 -22 -22 -23 -23 -23 -23 -22 -22
-26 -26 -26 -26 -27 -27 -26 -26 -27 -26 -25 -26 -26 -25 -25 -25 -25 -25 -25 -25 -25 -25 -25 -25 -25 -25 -25 -25 -25 -25 -25 -25 -25 -24 -24 -23 -22 -22 -23 -24 -23 -24 -23 -23
-28 -28 -27 -27 -28 -27 -27 -26 -27 -27 -26 -26 -26 -26 -26 -26 -26 -26 -25 -26 -26 -25 -25 -25 -25 -25 -25 -25 -25 -25 -25 -25 -25 -25 -24 -22 -22 -23 -24 -24 -23 -24 -23 -22
-28 -29 -29 -29 -29 -29 -28 -28 -28 -28 -27 -26 -27 -27 -26 -26 -26 -26 -26 -26 -26 -25 -25 -25 -25 -25 -25 -25 -25 -25 -25 -25 -25 -25 -24 -23 -23 -25 -25 -24 -24 -24 -23 -23
-29 -29 -29 -29 -29 -29 -29 -29 -29 -29 -27 -27 -27 -27 -27 -27 -27 -26 -26 -26 -26 -25 -25 -26 -25 -25 -26 -25 -25 -25 -25 -26 -25 -25 -24 -23 -24 -25 -25 -24 -24 -24 -24 -24
-30 -29 -29 -29 -29 -29 -29 -29 -30 -29 -28 -27 -27 -27 -27 -27 -27 -26 -26 -26 -26 -25 -26 -26 -25 -25 -26 -25 -26 -26 -26 -25 -25 -25 -24 -24 -25 -25 -24 -24 -24 -24 -24 -24
-30 -30 -30 -29 -30 -30 -29 -29 -30 -30 -29 -28 -28 -27 -27 -27 -27 -27 -27 -26 -26 -26 -26 -26 -26 -25 -25 -26 -25 -26 -25 -26 -25 -25 -25 -25 -24 -24 -24 -24 -24 -24 -24 -24
-30 -30 -30 -30 -30 -30 -30 -30 -31 -30 -29 -28 -28 -27 -28 -27 -27 -27 -27 -27 -27 -26 -26 -26 -26 -26 -26 -26 -26 -26 -26 -26 -25 -25 -25 -24 -24 -24 -24 -24 -24 -24 -24 -24
-31 -31 -32 -32 -31 -31 -30 -30 -31 -30 -30 -28 -28 -28 -28 -27 -27 -27 -27 -27 -27 -27 -27 -27 -27 -27 -26 -26 -26 -26 -26 -25 -25 -25 -25 -24 -24 -24 -24 -24 -24 -24 -24 -24
-32 -32 -32 -32 -32 -32 -31 -30 -30 -30 -30 -28 -28 -28 -28 -28 -28 -27 -27 -27 -27 -27 -27 -27 -27 -27 -27 -27 -26 -26 -26 -26 -26 -25 -25 -25 -25 -24 -24 -24 -24 -24 -24 -24
-33 -33 -33 -32 -32 -32 -31 -30 -30 -30 -30 -29 -29 -28 -28 -28 -28 -27 -27 -27 -27 -26 -27 -27 -27 -27 -27 -26 -26 -26 -26 -27 -26 -25 -25 -25 -25 -24 -24 -24 -24 -24 -24 -24
-33 -33 -33 -32 -32 -31 -31 -30 -30 -30 -30 -29 -29 -29 -28 -28 -27 -27 -27 -27 -27 -27 -27 -27 -27 -27 -27 -26 -25 -26 -27 -26 -26 -25 -25 -25 -25 -24 -24 -24 -24 -24 -24 -24
-33 -34 -34 -34 -33 -33 -31 -30 -30 -30 -30 -30 -29 -28 -28 -27 -27 -27 -27 -27 -27 -27 -27 -27 -27 -27 -27 -25 -26 -27 -26 -26 -26 -25 -25 -25 -25 -25 -24 -24 -24 -24 -24 -24
-34 -34 -34 -34 -34 -33 -33 -32 -30 -30 -30 -30 -29 -28 -28 -28 -27 -27 -27 -27 -27 -26 -26 -26 -27 -26 -25 -26 -27 -27 -26 -26 -26 -26 -25 -25 -25 -25 -24 -24 -24 -24 -24 -24
-34 -34 -34 -34 -34 -34 -33 -31 -30 -30 -30 -29 -29 -29 -28 -28 -27 -27 -28 -27 -27 -26 -26 -27 -26 -26 -26 -27 -27 -27 -26 -26 -26 -26 -25 -25 -25 -25 -25 -25 -25 -24 -24 -24
-34 -33 -33 -33 -32 -31 -30 -30 -30 -29 -29 -28 -28 -28 -28 -28 -28 -28 -28 -27 -27 -27 -27 -27 -26 -26 -27 -27 -27 -26 -26 -25 -25 -25 -25 -25 -25 -25 -25 -25 -25 -24 -24 -23
-33 -33 -32 -31 -31 -30 -30 -29 -29 -29 -29 -28 -28 -28 -28 -28 -28 -28 -28 -28 -27 -27 -27 -27 -27 -26 -27 -27 -26 -26 -26 -26 -26 -26 -26 -26 -25 -25 -25 -25 -24 -24 -24 -24
-31 -30 -30 -30 -30 -30 -30 -30 -29 -29 -29 -28 -28 -28 -28 -28 -28 -28 -28 -27 -27 -27 -27 -27 -27 -26 -26 -26 -26 -26 -26 -26 -26 -26 -25 -25 -25 -25 -25 -25 -25 -25 -25 -25
-30 -30 -30 -30 -30 -29 -29 -29 -28 -28 -28 -28 -27 -27 -27 -28 -28 -27 -27 -28 -28 -27 -27 -27 -26 -26 -26 -26 -26 -26 -26 -26 -26 -26 -25 -25 -25 -25 -25 -25 -25 -25 -25 -25
-30 -29 -29 -29 -29 -29 -29 -28 -28 -28 -27 -27 -27 -28 -28 -28 -28 -28 -28 -28 -27 -27 -27 -27 -27 -27 -26 -26 -26 -26 -26 -26 -26 -26 -26 -26 -26 -26 -26 -26 -26 -26 -26 -26
-30 -30 -29 -29 -29 -29 -29 -28 -28 -28 -28 -28 -27 -28 -28 -28 -28 -28 -28 -28 -28 -28 -27 -27 -27 -27 -26 -26 -26 -26 -26 -26 -26 -26 -26 -26 -26 -26 -26 -25 -26 -26 -26 -26
-29 -29 -29 -29 -29 -29 -29 -28 -28 -28 -28 -28 -28 -28 -28 -28 -28 -28 -28 -28 -28 -28 -27 -27 -27 -27 -27 -26 -26 -26 -26 -26 -26 -26 -26 -26 -26 -26 -26 -26 -26 -26 -26 -26
Height
5586 5589 5592 5596 5597 5602 5604 5608 5612 5614 5616 5620 5622 5627 5630 5635 5634 5630 5630 5632 5633 5635 5637 5638 5637 5636 5637 5638 5639 5640 5638 5635 5640 5640 5638 5639 5638 5636 5636 5637 5638 5638 5636 5641
5568 5572 5576 5580 5582 5585 5587 5591 5597 5598 5600 5605 5609 5612 5616 5619 5621 5618 5615 5617 5620 5623 5626 5622 5625 5624 5625 5627 5629 5629 5626 5624 5627 5628 5629 5628 5626 5625 5625 5626 5625 5626 5626 5632
5552 5554 5559 5563 5567 5568 5570 5575 5580 5583 5585 5593 5595 5598 5604 5606 5607 5605 5602 5608 5607 5609 5611 5611 5613 5614 5613 5615 5617 5616 5615 5615 5615 5616 5616 5615 5615 5620 5618 5616 5615 5614 5617 5618
5536 5540 5543 5547 5551 5552 5555 5559 5565 5569 5570 5581 5583 5585 5593 5593 5594 5594 5593 5596 5596 5596 5597 5599 5601 5599 5600 5600 5605 5604 5601 5601 5604 5607 5608 5605 5608 5611 5608 5606 5607 5602 5610 5609
5519 5523 5526 5531 5535 5538 5540 5547 5552 5557 5561 5566 5569 5572 5581 5582 5582 5584 5584 5586 5586 5585 5586 5589 5590 5588 5586 5586 5592 5595 5592 5590 5592 5592 5596 5596 5597 5599 5599 5597 5595 5592 5596 5596
5503 5507 5511 5516 5520 5525 5529 5534 5539 5542 5549 5553 5558 5564 5569 5571 5568 5576 5576 5573 5576 5578 5578 5578 5578 5578 5579 5579 5580 5582 5582 5582 5583 5583 5586 5584 5586 5592 5590 5587 5585 5584 5585 5589
5490 5495 5498 5503 5508 5514 5520 5525 5527 5530 5539 5543 5549 5554 5557 5560 5561 5566 5567 5566 5568 5569 5567 5568 5569 5570 5571 5571 5572 5571 5572 5573 5573 5573 5574 5572 5580 5578 5578 5577 5578 5578 5577 5577
5481 5485 5489 5492 5498 5503 5509 5514 5516 5519 5527 5534 5538 5543 5547 5549 5552 5556 5560 5561 5560 5558 5559 5561 5562 5562 5563 5564 5564 5564 5565 5564 5563 5561 5563 5566 5567 5568 5568 5568 5573 5571 5571 5570
5471 5475 5479 5484 5489 5494 5498 5502 5505 5509 5516 5526 5528 5533 5537 5542 5544 5548 5551 5551 5551 5551 5553 5554 5554 5554 5555 5556 5557 5558 5558 5556 5556 5555 5554 5556 5559 5562 5561 5562 5565 5565 5565 5564
5462 5467 5470 5475 5480 5485 5489 5493 5495 5498 5507 5517 5519 5524 5529 5532 5536 5540 5543 5542 5543 5544 5546 5547 5548 5549 5549 5550 5551 5552 5551 5550 5549 5548 5547 5547 5555 5554 5553 5557 5561 5558 5558 5557
5452 5457 5461 5465 5470 5474 5480 5485 5486 5491 5497 5507 5511 5517 5521 5524 5528 5533 5535 5535 5536 5537 5539 5542 5542 5542 5542 5542 5545 5544 5543 5540 5541 5543 5543 5545 5549 5549 5551 5553 5552 5552 5552 5551
5442 5447 5451 5456 5461 5465 5470 5477 5478 5482 5488 5501 5503 5509 5515 5518 5521 5524 5527 5529 5530 5531 5533 5535 5536 5535 5535 5537 5536 5537 5535 5536 5537 5537 5539 5540 5542 5543 5545 5546 5547 5546 5546 5546
5432 5437 5441 5446 5451 5456 5461 5469 5471 5475 5482 5491 5497 5505 5506 5510 5514 5516 5520 5524 5524 5525 5528 5528 5529 5528 5529 5528 5529 5530 5530 5531 5531 5533 5534 5535 5537 5538 5539 5540 5541 5542 5541 5541
5422 5427 5432 5437 5442 5447 5453 5460 5465 5470 5476 5482 5493 5494 5500 5503 5506 5509 5513 5517 5519 5520 5521 5521 5522 5522 5522 5523 5523 5524 5526 5526 5526 5527 5529 5528 5530 5532 5533 5535 5535 5536 5535 5535
5413 5418 5423 5428 5434 5439 5444 5452 5458 5464 5470 5476 5482 5487 5491 5495 5499 5503 5507 5510 5513 5515 5515 5515 5516 5516 5517 5517 5517 5521 5522 5522 5521 5522 5522 5523 5526 5526 5527 5529 5529 5529 5529 5529
5404 5409 5414 5419 5425 5430 5437 5447 5454 5459 5462 5468 5473 5480 5484 5489 5494 5497 5501 5505 5507 5509 5510 5511 5509 5511 5512 5509 5511 5518 5517 5517 5515 5515 5518 5521 5521 5520 5520 5523 5522 5522 5523 5522
5395 5400 5405 5410 5415 5420 5432 5442 5447 5452 5457 5463 5467 5473 5479 5484 5489 5492 5495 5498 5501 5502 5503 5503 5504 5506 5504 5502 5504 5513 5511 5510 5508 5509 5511 5515 5514 5515 5513 5514 5515 5515 5514 5514
5387 5392 5397 5401 5406 5410 5420 5432 5440 5447 5452 5458 5463 5469 5475 5479 5483 5486 5490 5493 5495 5495 5495 5496 5497 5497 5495 5491 5504 5502 5501 5500 5502 5503 5503 5506 5507 5507 5506 5506 5506 5507 5507 5507
5384 5389 5394 5398 5401 5408 5416 5422 5433 5441 5450 5456 5460 5465 5471 5475 5478 5482 5485 5487 5487 5487 5487 5488 5487 5487 5485 5494 5493 5492 5492 5493 5494 5495 5496 5498 5499 5499 5498 5498 5498 5498 5498 5497
5385 5390 5394 5398 5405 5409 5414 5425 5435 5442 5448 5451 5455 5463 5468 5473 5475 5477 5480 5478 5478 5477 5480 5479 5477 5478 5484 5484 5485 5484 5483 5485 5486 5486 5489 5490 5490 5490 5489 5490 5490 5490 5488 5487
5385 5392 5397 5402 5406 5413 5422 5429 5437 5443 5445 5448 5456 5462 5466 5470 5471 5472 5472 5470 5471 5469 5472 5470 5468 5472 5477 5477 5475 5475 5475 5476 5477 5478 5480 5481 5482 5483 5483 5483 5482 5481 5478 5475
5393 5399 5405 5411 5417 5422 5428 5432 5436 5439 5445 5451 5457 5461 5463 5465 5466 5466 5465 5464 5463 5462 5463 5463 5463 5468 5468 5468 5468 5468 5468 5469 5471 5472 5473 5475 5476 5476 5476 5475 5473 5470 5467 5465
5402 5407 5415 5419 5424 5428 5428 5432 5440 5444 5449 5452 5455 5457 5458 5459 5460 5459 5458 5457 5457 5458 5456 5458 5460 5462 5463 5464 5465 5466 5467 5467 5467 5468 5469 5470 5470 5470 5468 5466 5464 5461 5460 5459
5411 5413 5419 5422 5422 5426 5434 5438 5442 5444 5446 5448 5450 5450 5452 5453 5452 5452 5453 5452 5450 5449 5451 5454 5457 5458 5459 5461 5461 5462 5463 5463 5464 5464 5464 5464 5463 5462 5460 5458 5457 5455 5453 5452
5416 5419 5422 5425 5428 5431 5434 5436 5438 5441 5442 5444 5444 5446 5447 5448 5448 5448 5448 5447 5447 5447 5450 5452 5453 5454 5455 5456 5458 5458 5458 5458 5459 5459 5459 5458 5457 5455 5454 5453 5451 5449 5447 5446
5420 5423 5425 5428 5430 5432 5433 5435 5436 5437 5438 5439 5440 5441 5442 5443 5442 5442 5441 5443 5445 5447 5446 5447 5448 5450 5451 5452 5452 5452 5452 5453 5453 5453 5452 5452 5451 5450 5449 5447 5445 5443 5442 5440
5421 5422 5425 5426 5427 5429 5430 5430 5431 5432 5433 5433 5433 5434 5436 5438 5438 5439 5439 5440 5441 5440 5441 5441 5443 5444 5445 5446 5447 5447 5447 5447 5447 5447 5446 5446 5445 5444 5442 5440 5439 5437 5435 5434
Wind_Speed
71 70 69 69 69 67 66 65 64 64 64 63 63 61 59 58 59 61 62 61 61 59 56 54 54 53 53 52 51 48 46 50 47 51 52 47 44 46 46 38 38 37 39 50
71 69 68 68 66 67 66 65 64 64 64 62 60 59 59 59 59 59 55 55 56 56 55 53 49 47 47 45 43 45 46 47 48 51 53 51 45 49 49 46 47 50 50 53
70 68 68 68 67 65 64 66 63 62 62 60 60 59 58 57 55 54 51 50 49 49 48 49 50 49 45 46 46 44 45 41 41 51 51 50 50 45 46 45 47 52 50 48
66 66 67 67 66 64 60 60 60 60 61 58 55 55 55 53 50 47 48 46 45 43 49 51 53 50 45 48 47 55 47 50 47 40 46 51 50 46 44 44 48 50 44 41
63 66 65 64 60 58 57 56 56 57 54 52 52 51 48 45 42 43 42 44 44 44 46 41 43 47 44 46 46 46 48 47 46 48 44 46 44 41 45 50 50 48 46 45
57 57 56 56 55 56 52 50 47 50 50 49 49 48 45 43 43 41 39 39 43 43 41 39 35 37 41 41 38 36 38 40 42 46 49 50 52 47 46 43 40 39 40 33
51 50 49 49 49 47 49 47 45 46 47 44 42 40 40 41 42 41 36 37 35 32 35 34 30 33 34 33 35 37 37 33 39 40 38 43 44 44 36 34 35 29 28 27
47 48 47 47 46 46 46 45 43 42 43 40 40 39 39 40 39 37 35 33 28 31 27 28 28 27 29 25 21 24 25 30 36 38 39 38 38 34 26 26 19 23 25 27
48 46 44 42 41 40 40 40 40 39 40 39 37 38 38 39 37 36 38 37 39 31 26 28 30 32 33 30 28 27 26 27 29 33 37 38 34 15 20 19 17 18 17 18
42 41 41 41 40 39 38 37 39 40 41 38 36 38 37 35 34 34 32 34 31 31 30 28 26 26 29 32 35 34 29 28 31 27 31 33 14 12 20 17 15 13 12 12
39 39 39 37 36 36 35 35 37 40 40 36 36 37 37 34 33 35 24 23 25 27 26 26 23 28 31 35 36 36 32 29 30 30 31 22 11 18 20 18 15 15 17 14
38 38 38 38 37 37 36 35 36 37 38 34 33 34 36 30 33 33 25 21 21 26 25 27 31 37 40 40 35 28 30 26 21 24 15 16 13 16 18 19 18 19 20 18
38 38 38 38 38 37 36 34 37 37 36 33 33 30 30 29 32 32 33 23 24 25 23 23 26 30 27 26 21 20 24 16 20 16 16 18 23 23 21 21 17 17 18 20
38 37 36 36 37 38 37 36 38 37 36 35 30 32 31 34 33 34 35 26 26 24 23 24 25 25 25 22 24 22 22 23 21 20 20 29 22 12 11 16 22 20 19 20
36 35 36 38 38 38 39 37 37 35 36 34 34 32 35 40 33 27 27 24 22 23 23 25 24 25 29 29 29 23 21 25 27 27 24 26 23 24 26 21 20 21 20 20
37 38 40 40 39 40 40 37 34 32 33 35 32 32 36 34 27 27 30 25 30 32 37 32 31 28 28 32 30 18 19 20 28 36 30 23 23 28 31 25 24 24 25 26
40 40 42 43 43 44 41 38 36 32 33 32 33 29 33 28 28 27 31 32 35 32 32 33 32 33 36 39 30 17 22 26 31 33 31 27 28 24 29 28 27 28 28 28
24 22 24 25 29 34 45 41 38 34 35 35 30 22 24 24 24 22 26 29 32 34 36 33 33 32 35 35 18 18 25 32 31 31 32 30 29 27 29 29 31 30 29 30
22 21 21 21 25 24 21 33 39 42 35 36 30 24 21 21 20 21 24 27 31 32 30 30 33 33 34 20 20 24 28 29 29 30 31 31 30 31 32 30 28 28 32 34
22 19 21 20 13 19 30 32 31 34 39 35 25 20 22 20 22 24 27 29 30 31 25 26 31 29 18 17 20 25 29 29 29 31 31 31 31 33 29 27 28 32 35 37
22 20 7 15 30 38 35 32 31 35 31 29 23 23 23 23 25 26 30 33 33 34 30 29 30 21 16 22 29 30 29 29 30 30 25 22 22 24 24 27 30 34 36 36
21 20 23 32 36 35 35 35 34 33 27 21 21 24 26 28 30 32 35 35 36 35 32 26 22 13 15 17 18 18 16 16 17 16 16 19 21 21 25 29 30 31 30 28
39 30 24 32 30 21 33 32 26 24 24 22 23 26 29 30 31 33 33 33 33 29 25 10 6 11 7 13 13 10 11 12 13 15 17 18 20 23 25 26 25 26 25 24
26 22 22 33 33 29 19 14 18 18 20 21 23 26 27 26 26 26 23 23 22 22 23 10 13 8 9 12 11 10 13 16 16 17 19 20 21 21 21 21 20 22 21 20
27 27 27 29 23 18 16 15 15 19 22 20 23 25 23 18 15 14 19 17 13 15 15 14 16 18 12 17 16 17 17 17 18 20 21 21 19 19 19 19 18 18 19 19
22 21 20 17 15 16 18 21 22 25 27 27 27 27 24 26 22 22 20 17 14 17 14 22 20 19 18 17 19 18 17 18 19 19 19 17 17 17 18 19 19 19 19 19
18 18 18 20 22 25 27 29 31 31 30 28 30 30 32 31 26 22 21 15 18 18 18 23 22 19 20 21 20 19 19 19 20 20 17 18 19 20 22 22 22 22 22 22
Wind_Direction
255 255 255 256 257 256 256 256 257 258 259 260 261 263 265 265 265 266 267 267 268 267 269 271 272 273 272 272 272 270 259 257 256 256 256 256 259 262 263 258 255 261 267 264
252 253 254 254 255 256 256 255 255 256 259 261 263 263 264 264 264 264 264 264 265 267 269 270 269 268 268 264 259 267 265 265 264 256 254 256 260 260 259 259 261 266 266 273
250 250 251 251 251 253 255 255 256 258 258 260 262 264 264 264 262 261 263 266 267 265 265 267 269 268 259 256 249 249 244 249 267 259 256 256 259 265 273 272 274 272 275 277
252 251 251 250 250 251 252 255 256 258 262 261 262 261 261 260 259 262 263 263 265 267 266 267 268 266 263 257 250 253 262 248 252 264 265 258 264 272 267 276 283 278 279 273
248 249 249 250 250 252 253 255 256 258 260 257 256 255 255 255 261 258 263 267 265 265 267 272 269 265 259 259 259 259 264 266 262 262 261 265 266 265 273 277 278 271 275 276
247 247 248 249 249 250 252 253 253 254 254 253 253 254 254 254 257 258 264 263 266 269 265 266 268 264 261 262 262 259 259 263 264 262 261 263 263 269 273 274 273 274 273 275
245 245 248 249 250 250 252 254 252 253 254 254 255 254 256 258 263 261 264 264 264 255 256 264 265 266 260 264 267 261 261 259 264 265 263 264 264 264 266 266 266 276 280 282
246 245 244 244 243 245 245 246 248 251 251 249 251 252 256 260 261 263 258 252 260 259 256 258 251 253 267 259 268 263 262 260 265 262 256 258 258 264 281 272 264 268 269 270
238 239 241 245 249 251 250 251 252 254 251 248 251 254 255 258 260 258 249 248 267 255 247 252 251 257 262 260 268 275 280 280 259 254 261 261 262 270 257 270 267 272 268 269
245 244 244 245 246 247 249 252 255 256 258 252 245 249 252 255 255 252 254 250 250 247 244 250 262 264 257 257 263 277 275 279 265 255 259 257 274 258 261 259 266 273 282 280
248 248 249 248 246 247 248 249 250 251 252 247 247 246 249 252 250 233 248 256 252 244 240 244 250 251 255 262 266 273 276 275 257 259 264 273 282 257 262 257 276 271 272 277
246 245 245 244 244 245 245 244 246 246 246 243 241 246 251 245 241 242 239 252 251 245 243 247 248 248 259 269 270 269 268 269 263 250 254 263 264 249 258 263 267 266 274 277
245 243 242 243 242 242 243 240 241 245 244 237 236 244 244 242 243 230 231 253 262 251 241 261 254 253 259 261 259 266 266 230 239 229 237 277 256 277 283 269 263 270 271 276
242 240 240 241 241 241 242 238 239 242 245 240 238 246 249 237 230 231 235 239 250 252 234 243 259 259 260 256 260 260 263 235 240 232 270 266 276 250 268 279 266 267 279 281
243 242 239 240 240 239 240 237 236 237 241 244 244 248 238 227 233 230 223 233 235 245 246 244 249 255 264 266 263 267 252 241 249 242 266 272 267 269 271 272 270 278 282 278
239 240 242 242 240 237 236 235 234 233 238 243 240 231 220 224 230 230 220 223 234 244 259 259 258 259 268 268 263 262 253 260 261 246 253 266 261 265 271 273 271 273 277 278
250 249 249 249 247 245 239 235 232 227 229 231 226 219 214 223 218 225 221 226 237 251 255 256 263 264 262 264 265 282 261 254 255 262 263 264 267 270 273 270 269 272 279 278
235 224 220 221 224 233 240 231 223 213 211 215 211 217 219 209 217 224 228 238 247 256 261 266 267 265 264 265 290 260 249 247 255 259 258 259 268 277 279 272 265 271 275 276
188 194 197 200 209 211 202 195 193 202 207 205 219 223 215 222 234 233 244 258 262 262 266 268 268 268 267 285 256 246 248 250 253 255 257 260 268 277 279 267 267 274 276 279
174 183 195 206 203 183 167 169 184 198 203 200 212 229 235 236 236 247 269 277 275 275 275 271 267 270 270 260 254 252 255 254 254 259 261 266 270 273 270 266 271 276 279 282
168 167 160 150 155 143 150 163 183 190 200 204 211 221 229 235 247 261 272 273 275 278 279 276 268 267 260 257 257 255 258 260 263 265 265 262 258 260 265 271 276 280 284 285
148 139 136 148 151 156 164 176 189 197 210 213 224 232 235 242 256 268 272 278 279 280 280 272 274 267 269 263 259 264 259 257 256 253 247 255 260 268 277 281 284 287 289 287
126 124 140 161 153 185 195 197 192 206 215 226 233 241 245 252 262 270 279 279 280 275 263 249 266 230 277 241 249 248 249 255 255 251 252 261 271 278 282 285 290 289 285 278
134 144 194 190 185 188 184 202 215 220 224 233 239 246 259 270 273 270 274 269 273 263 238 228 235 270 250 222 257 271 257 256 257 258 265 274 281 286 289 292 291 288 285 277
159 173 181 190 188 195 213 230 226 220 224 242 254 262 266 249 235 253 273 278 311 308 235 240 263 259 279 250 268 279 270 269 271 273 278 285 289 290 294 296 295 293 288 281
192 197 201 208 212 221 229 230 234 237 242 250 253 253 240 223 240 265 265 271 298 305 261 238 253 263 268 271 277 281 275 274 277 280 283 285 288 292 295 297 297 298 295 289
223 227 229 229 230 234 239 241 246 249 254 256 254 249 232 233 241 258 279 288 284 281 264 241 252 263 258 262 270 271 273 275 278 278 281 285 291 297 300 300 299 294 292 292